Year,Month,Day,Hour,Minute,Value (Times are PST for temperature in C)
2020,09,16,00,00,16.50
2020,09,16,00,01,16.50
2020,09,16,00,02,16.50
2020,09,16,00,03,16.50
2020,09,16,00,04,16.50
2020,09,16,00,05,16.50
2020,09,16,00,06,16.50
2020,09,16,00,07,16.50
2020,09,16,00,08,16.50
2020,09,16,00,09,16.50
2020,09,16,00,10,16.50
2020,09,16,00,11,16.50
2020,09,16,00,12,16.50
2020,09,16,00,13,16.50
2020,09,16,00,14,16.50
2020,09,16,00,15,16.40
2020,09,16,00,16,16.40
2020,09,16,00,17,16.40
2020,09,16,00,18,16.40
2020,09,16,00,19,16.40
2020,09,16,00,20,16.40
2020,09,16,00,21,16.50
2020,09,16,00,22,16.50
2020,09,16,00,23,16.50
2020,09,16,00,24,16.50
2020,09,16,00,25,16.50
2020,09,16,00,26,16.50
2020,09,16,00,27,16.50
2020,09,16,00,28,16.50
2020,09,16,00,29,16.50
2020,09,16,00,30,16.50
2020,09,16,00,31,16.50
2020,09,16,00,32,16.50
2020,09,16,00,33,16.50
2020,09,16,00,34,16.40
2020,09,16,00,35,16.40
2020,09,16,00,36,16.40
2020,09,16,00,37,16.40
2020,09,16,00,38,16.30
2020,09,16,00,39,16.30
2020,09,16,00,40,16.30
2020,09,16,00,41,16.30
2020,09,16,00,42,16.20
2020,09,16,00,43,16.20
2020,09,16,00,44,16.20
2020,09,16,00,45,16.20
2020,09,16,00,46,16.10
2020,09,16,00,47,16.10
2020,09,16,00,48,16.10
2020,09,16,00,49,16.10
2020,09,16,00,50,16.10
2020,09,16,00,51,16.10
2020,09,16,00,52,16.00
2020,09,16,00,53,16.00
2020,09,16,00,54,16.00
2020,09,16,00,55,16.00
2020,09,16,00,56,16.00
2020,09,16,00,57,15.90
2020,09,16,00,58,15.90
2020,09,16,00,59,15.90
2020,09,16,01,00,15.90
2020,09,16,01,01,15.90
2020,09,16,01,02,15.90
2020,09,16,01,03,15.90
2020,09,16,01,04,15.90
2020,09,16,01,05,15.90
2020,09,16,01,06,15.90
2020,09,16,01,07,15.90
2020,09,16,01,08,15.90
2020,09,16,01,09,15.90
2020,09,16,01,10,15.90
2020,09,16,01,11,15.90
2020,09,16,01,12,15.90
2020,09,16,01,13,15.90
2020,09,16,01,14,15.80
2020,09,16,01,15,15.80
2020,09,16,01,16,15.80
2020,09,16,01,17,15.80
2020,09,16,01,18,15.80
2020,09,16,01,19,15.80
2020,09,16,01,20,15.80
2020,09,16,01,21,15.80
2020,09,16,01,22,15.80
2020,09,16,01,23,15.80
2020,09,16,01,24,15.80
2020,09,16,01,25,15.70
2020,09,16,01,26,15.70
2020,09,16,01,27,15.70
2020,09,16,01,28,15.70
2020,09,16,01,29,15.70
2020,09,16,01,30,15.80
2020,09,16,01,31,15.80
2020,09,16,01,32,15.80
2020,09,16,01,33,15.80
2020,09,16,01,34,15.80
2020,09,16,01,35,15.80
2020,09,16,01,36,15.80
2020,09,16,01,37,15.80
2020,09,16,01,38,15.80
2020,09,16,01,39,15.80
2020,09,16,01,40,15.80
2020,09,16,01,41,15.80
2020,09,16,01,42,15.80
2020,09,16,01,43,15.80
2020,09,16,01,44,15.80
2020,09,16,01,45,15.80
2020,09,16,01,46,15.80
2020,09,16,01,47,15.80
2020,09,16,01,48,15.80
2020,09,16,01,49,15.90
2020,09,16,01,50,15.90
2020,09,16,01,51,15.90
2020,09,16,01,52,15.90
2020,09,16,01,53,15.90
2020,09,16,01,54,15.90
2020,09,16,01,55,15.90
2020,09,16,01,56,15.90
2020,09,16,01,57,15.90
2020,09,16,01,58,15.90
2020,09,16,01,59,15.90
2020,09,16,02,00,15.90
2020,09,16,02,01,15.90
2020,09,16,02,02,15.90
2020,09,16,02,03,15.90
2020,09,16,02,04,15.90
2020,09,16,02,05,15.90
2020,09,16,02,06,15.80
2020,09,16,02,07,15.80
2020,09,16,02,08,15.80
2020,09,16,02,09,15.80
2020,09,16,02,10,15.80
2020,09,16,02,11,15.80
2020,09,16,02,12,15.80
2020,09,16,02,13,15.80
2020,09,16,02,14,15.80
2020,09,16,02,15,15.80
2020,09,16,02,16,15.80
2020,09,16,02,17,15.80
2020,09,16,02,18,15.80
2020,09,16,02,19,15.80
2020,09,16,02,20,15.80
2020,09,16,02,21,15.80
2020,09,16,02,22,15.80
2020,09,16,02,23,15.80
2020,09,16,02,24,15.80
2020,09,16,02,25,15.80
2020,09,16,02,26,15.80
2020,09,16,02,27,15.80
2020,09,16,02,28,15.80
2020,09,16,02,29,15.90
2020,09,16,02,30,15.90
2020,09,16,02,31,15.90
2020,09,16,02,32,15.90
2020,09,16,02,33,15.90
2020,09,16,02,34,15.90
2020,09,16,02,35,16.00
2020,09,16,02,36,16.00
2020,09,16,02,37,16.00
2020,09,16,02,38,16.00
2020,09,16,02,39,16.00
2020,09,16,02,40,16.10
2020,09,16,02,41,16.10
2020,09,16,02,42,16.10
2020,09,16,02,43,16.10
2020,09,16,02,44,16.10
2020,09,16,02,45,16.10
2020,09,16,02,46,16.10
2020,09,16,02,47,16.10
2020,09,16,02,48,16.10
2020,09,16,02,49,16.10
2020,09,16,02,50,16.10
2020,09,16,02,51,16.20
2020,09,16,02,52,16.20
2020,09,16,02,53,16.20
2020,09,16,02,54,16.20
2020,09,16,02,55,16.20
2020,09,16,02,56,16.20
2020,09,16,02,57,16.20
2020,09,16,02,58,16.20
2020,09,16,02,59,16.20
2020,09,16,03,00,16.30
2020,09,16,03,01,16.30
2020,09,16,03,02,16.30
2020,09,16,03,03,16.30
2020,09,16,03,04,16.30
2020,09,16,03,05,16.30
2020,09,16,03,06,16.30
2020,09,16,03,07,16.40
2020,09,16,03,08,16.40
2020,09,16,03,09,16.40
2020,09,16,03,10,16.40
2020,09,16,03,11,16.40
2020,09,16,03,12,16.40
2020,09,16,03,13,16.40
2020,09,16,03,14,16.40
2020,09,16,03,15,16.40
2020,09,16,03,16,16.40
2020,09,16,03,17,16.40
2020,09,16,03,18,16.40
2020,09,16,03,19,16.40
2020,09,16,03,20,16.40
2020,09,16,03,21,16.40
2020,09,16,03,22,16.50
2020,09,16,03,23,16.50
2020,09,16,03,24,16.50
2020,09,16,03,25,16.50
2020,09,16,03,26,16.50
2020,09,16,03,27,16.50
2020,09,16,03,28,16.50
2020,09,16,03,29,16.50
2020,09,16,03,30,16.50
2020,09,16,03,31,16.50
2020,09,16,03,32,16.50
2020,09,16,03,33,16.60
2020,09,16,03,34,16.60
2020,09,16,03,35,16.60
2020,09,16,03,36,16.60
2020,09,16,03,37,16.60
2020,09,16,03,38,16.70
2020,09,16,03,39,16.70
2020,09,16,03,40,16.70
2020,09,16,03,41,16.70
2020,09,16,03,42,16.70
2020,09,16,03,43,16.70
2020,09,16,03,44,16.80
2020,09,16,03,45,16.80
2020,09,16,03,46,16.80
2020,09,16,03,47,16.70
2020,09,16,03,48,16.70
2020,09,16,03,49,16.70
2020,09,16,03,50,16.70
2020,09,16,03,51,16.70
2020,09,16,03,52,16.70
2020,09,16,03,53,16.80
2020,09,16,03,54,16.80
2020,09,16,03,55,16.80
2020,09,16,03,56,16.80
2020,09,16,03,57,16.80
2020,09,16,03,58,16.80
2020,09,16,03,59,16.80
2020,09,16,04,00,16.80
2020,09,16,04,01,16.90
2020,09,16,04,02,16.90
2020,09,16,04,03,16.90
2020,09,16,04,04,16.90
2020,09,16,04,05,16.90
2020,09,16,04,06,17.00
2020,09,16,04,07,17.00
2020,09,16,04,08,17.00
2020,09,16,04,09,17.00
2020,09,16,04,10,17.00
2020,09,16,04,11,17.00
2020,09,16,04,12,17.00
2020,09,16,04,13,17.10
2020,09,16,04,14,17.10
2020,09,16,04,15,17.10
2020,09,16,04,16,17.10
2020,09,16,04,17,17.10
2020,09,16,04,18,17.10
2020,09,16,04,19,17.10
2020,09,16,04,20,17.10
2020,09,16,04,21,17.10
2020,09,16,04,22,17.10
2020,09,16,04,23,17.10
2020,09,16,04,24,17.10
2020,09,16,04,25,17.10
2020,09,16,04,26,17.10
2020,09,16,04,27,17.00
2020,09,16,04,28,17.00
2020,09,16,04,29,17.00
2020,09,16,04,30,17.00
2020,09,16,04,31,17.00
2020,09,16,04,32,17.00
2020,09,16,04,33,17.00
2020,09,16,04,34,17.00
2020,09,16,04,35,17.00
2020,09,16,04,36,17.00
2020,09,16,04,37,17.00
2020,09,16,04,38,16.90
2020,09,16,04,39,16.90
2020,09,16,04,40,16.90
2020,09,16,04,41,16.90
2020,09,16,04,42,16.90
2020,09,16,04,43,16.90
2020,09,16,04,44,16.90
2020,09,16,04,45,16.90
2020,09,16,04,46,16.80
2020,09,16,04,47,16.80
2020,09,16,04,48,16.80
2020,09,16,04,49,16.80
2020,09,16,04,50,16.80
2020,09,16,04,51,16.80
2020,09,16,04,52,16.80
2020,09,16,04,53,16.80
2020,09,16,04,54,16.70
2020,09,16,04,55,16.70
2020,09,16,04,56,16.70
2020,09,16,04,57,16.70
2020,09,16,04,58,16.70
2020,09,16,04,59,16.70
2020,09,16,05,00,16.70
2020,09,16,05,01,16.70
2020,09,16,05,02,16.70
2020,09,16,05,03,16.70
2020,09,16,05,04,16.70
2020,09,16,05,05,16.70
2020,09,16,05,06,16.70
2020,09,16,05,07,16.70
2020,09,16,05,08,16.70
2020,09,16,05,09,16.70
2020,09,16,05,10,16.70
2020,09,16,05,11,16.70
2020,09,16,05,12,16.70
2020,09,16,05,13,16.70
2020,09,16,05,14,16.70
2020,09,16,05,15,16.70
2020,09,16,05,16,16.70
2020,09,16,05,17,16.70
2020,09,16,05,18,16.70
2020,09,16,05,19,16.70
2020,09,16,05,20,16.70
2020,09,16,05,21,16.70
2020,09,16,05,22,16.70
2020,09,16,05,23,16.70
2020,09,16,05,24,16.70
2020,09,16,05,25,16.70
2020,09,16,05,26,16.70
2020,09,16,05,27,16.70
2020,09,16,05,28,16.70
2020,09,16,05,29,16.70
2020,09,16,05,30,16.70
2020,09,16,05,31,16.80
2020,09,16,05,32,16.80
2020,09,16,05,33,16.80
2020,09,16,05,34,16.80
2020,09,16,05,35,16.80
2020,09,16,05,36,16.80
2020,09,16,05,37,16.80
2020,09,16,05,38,16.80
2020,09,16,05,39,16.80
2020,09,16,05,40,16.70
2020,09,16,05,41,16.70
2020,09,16,05,42,16.70
2020,09,16,05,43,16.70
2020,09,16,05,44,16.70
2020,09,16,05,45,16.70
2020,09,16,05,46,16.70
2020,09,16,05,47,16.70
2020,09,16,05,48,16.70
2020,09,16,05,49,16.70
2020,09,16,05,50,16.70
2020,09,16,05,51,16.70
2020,09,16,05,52,16.70
2020,09,16,05,53,16.60
2020,09,16,05,54,16.60
2020,09,16,05,55,16.60
2020,09,16,05,56,16.60
2020,09,16,05,57,16.60
2020,09,16,05,58,16.50
2020,09,16,05,59,16.50
2020,09,16,06,00,16.40
2020,09,16,06,01,16.40
2020,09,16,06,02,16.40
2020,09,16,06,03,16.30
2020,09,16,06,04,16.30
2020,09,16,06,05,16.30
2020,09,16,06,06,16.30
2020,09,16,06,07,16.30
2020,09,16,06,08,16.30
2020,09,16,06,09,16.30
2020,09,16,06,10,16.20
2020,09,16,06,11,16.20
2020,09,16,06,12,16.20
2020,09,16,06,13,16.10
2020,09,16,06,14,16.10
2020,09,16,06,15,16.10
2020,09,16,06,16,16.10
2020,09,16,06,17,16.10
2020,09,16,06,18,16.10
2020,09,16,06,19,16.20
2020,09,16,06,20,16.20
2020,09,16,06,21,16.20
2020,09,16,06,22,16.20
2020,09,16,06,23,16.20
2020,09,16,06,24,16.20
2020,09,16,06,25,16.20
2020,09,16,06,26,16.20
2020,09,16,06,27,16.20
2020,09,16,06,28,16.20
2020,09,16,06,29,16.20
2020,09,16,06,30,16.20
2020,09,16,06,31,16.20
2020,09,16,06,32,16.20
2020,09,16,06,33,16.20
2020,09,16,06,34,16.20
2020,09,16,06,35,16.20
2020,09,16,06,36,16.20
2020,09,16,06,37,16.20
2020,09,16,06,38,16.20
2020,09,16,06,39,16.20
2020,09,16,06,40,16.20
2020,09,16,06,41,16.20
2020,09,16,06,42,16.20
2020,09,16,06,43,16.20
2020,09,16,06,44,16.20
2020,09,16,06,45,16.20
2020,09,16,06,46,16.20
2020,09,16,06,47,16.20
2020,09,16,06,48,16.20
2020,09,16,06,49,16.20
2020,09,16,06,50,16.20
2020,09,16,06,51,16.20
2020,09,16,06,52,16.20
2020,09,16,06,53,16.30
2020,09,16,06,54,16.20
2020,09,16,06,55,16.30
2020,09,16,06,56,16.30
2020,09,16,06,57,16.20
2020,09,16,06,58,16.30
2020,09,16,06,59,16.30
2020,09,16,07,00,16.30
2020,09,16,07,01,16.20
2020,09,16,07,02,16.20
2020,09,16,07,03,16.20
2020,09,16,07,04,16.20
2020,09,16,07,05,16.20
2020,09,16,07,06,16.20
2020,09,16,07,07,16.20
2020,09,16,07,08,16.20
2020,09,16,07,09,16.20
2020,09,16,07,10,16.20
2020,09,16,07,11,16.20
2020,09,16,07,12,16.20
2020,09,16,07,13,16.20
2020,09,16,07,14,16.20
2020,09,16,07,15,16.20
2020,09,16,07,16,16.20
2020,09,16,07,17,16.20
2020,09,16,07,18,16.20
2020,09,16,07,19,16.20
2020,09,16,07,20,16.10
2020,09,16,07,21,16.10
2020,09,16,07,22,16.10
2020,09,16,07,23,16.10
2020,09,16,07,24,16.10
2020,09,16,07,25,16.10
2020,09,16,07,26,16.10
2020,09,16,07,27,16.10
2020,09,16,07,28,16.10
2020,09,16,07,29,16.00
2020,09,16,07,30,16.00
2020,09,16,07,31,16.00
2020,09,16,07,32,16.00
2020,09,16,07,33,16.00
2020,09,16,07,34,16.00
2020,09,16,07,35,16.00
2020,09,16,07,36,16.00
2020,09,16,07,37,16.00
2020,09,16,07,38,16.00
2020,09,16,07,39,16.10
2020,09,16,07,40,16.10
2020,09,16,07,41,16.10
2020,09,16,07,42,16.10
2020,09,16,07,43,16.10
2020,09,16,07,44,16.10
2020,09,16,07,45,16.10
2020,09,16,07,46,16.10
2020,09,16,07,47,16.10
2020,09,16,07,48,16.10
2020,09,16,07,49,16.10
2020,09,16,07,50,16.10
2020,09,16,07,51,16.10
2020,09,16,07,52,16.10
2020,09,16,07,53,16.10
2020,09,16,07,54,16.10
2020,09,16,07,55,16.10
2020,09,16,07,56,16.10
2020,09,16,07,57,16.20
2020,09,16,07,58,16.20
2020,09,16,07,59,16.20
2020,09,16,08,00,16.20
2020,09,16,08,01,16.20
2020,09,16,08,02,16.20
2020,09,16,08,03,16.20
2020,09,16,08,04,16.20
2020,09,16,08,05,16.20
2020,09,16,08,06,16.20
2020,09,16,08,07,16.20
2020,09,16,08,08,16.30
2020,09,16,08,09,16.30
2020,09,16,08,10,16.30
2020,09,16,08,11,16.30
2020,09,16,08,12,16.30
2020,09,16,08,13,16.30
2020,09,16,08,14,16.30
2020,09,16,08,15,16.30
2020,09,16,08,16,16.30
2020,09,16,08,17,16.30
2020,09,16,08,18,16.30
2020,09,16,08,19,16.30
2020,09,16,08,20,16.30
2020,09,16,08,21,16.30
2020,09,16,08,22,16.30
2020,09,16,08,23,16.30
2020,09,16,08,24,16.30
2020,09,16,08,25,16.30
2020,09,16,08,26,16.30
2020,09,16,08,27,16.30
2020,09,16,08,28,16.30
2020,09,16,08,29,16.30
2020,09,16,08,30,16.30
2020,09,16,08,31,16.30
2020,09,16,08,32,16.30
2020,09,16,08,33,16.40
2020,09,16,08,34,16.40
2020,09,16,08,35,16.40
2020,09,16,08,36,16.50
2020,09,16,08,37,16.50
2020,09,16,08,38,16.50
2020,09,16,08,39,16.60
2020,09,16,08,40,16.60
2020,09,16,08,41,16.60
2020,09,16,08,42,16.60
2020,09,16,08,43,16.70
2020,09,16,08,44,16.70
2020,09,16,08,45,16.70
2020,09,16,08,46,16.80
2020,09,16,08,47,16.80
2020,09,16,08,48,16.80
2020,09,16,08,49,16.80
2020,09,16,08,50,16.90
2020,09,16,08,51,16.90
2020,09,16,08,52,16.90
2020,09,16,08,53,16.90
2020,09,16,08,54,17.00
2020,09,16,08,55,17.00
2020,09,16,08,56,17.10
2020,09,16,08,57,17.10
2020,09,16,08,58,17.10
2020,09,16,08,59,17.10
2020,09,16,09,00,17.10
2020,09,16,09,01,17.10
2020,09,16,09,02,17.10
2020,09,16,09,03,17.10
2020,09,16,09,04,17.10
2020,09,16,09,05,17.10
2020,09,16,09,06,17.10
2020,09,16,09,07,17.10
2020,09,16,09,08,17.10
2020,09,16,09,09,17.10
2020,09,16,09,10,17.10
2020,09,16,09,11,17.10
2020,09,16,09,12,17.10
2020,09,16,09,13,17.10
2020,09,16,09,14,17.10
2020,09,16,09,15,17.10
2020,09,16,09,16,17.10
2020,09,16,09,17,17.10
2020,09,16,09,18,17.10
2020,09,16,09,19,17.10
2020,09,16,09,20,17.20
2020,09,16,09,21,17.20
2020,09,16,09,22,17.20
2020,09,16,09,23,17.20
2020,09,16,09,24,17.20
2020,09,16,09,25,17.20
2020,09,16,09,26,17.30
2020,09,16,09,27,17.30
2020,09,16,09,28,17.30
2020,09,16,09,29,17.30
2020,09,16,09,30,17.40
2020,09,16,09,31,17.40
2020,09,16,09,32,17.40
2020,09,16,09,33,17.50
2020,09,16,09,34,17.50
2020,09,16,09,35,17.50
2020,09,16,09,36,17.60
2020,09,16,09,37,17.60
2020,09,16,09,38,17.60
2020,09,16,09,39,17.60
2020,09,16,09,40,17.60
2020,09,16,09,41,17.70
2020,09,16,09,42,17.70
2020,09,16,09,43,17.70
2020,09,16,09,44,17.70
2020,09,16,09,45,17.70
2020,09,16,09,46,17.70
2020,09,16,09,47,17.80
2020,09,16,09,48,17.80
2020,09,16,09,49,17.80
2020,09,16,09,50,17.80
2020,09,16,09,51,17.90
2020,09,16,09,52,17.90
2020,09,16,09,53,17.90
2020,09,16,09,54,17.90
2020,09,16,09,55,17.90
2020,09,16,09,56,17.90
2020,09,16,09,57,18.00
2020,09,16,09,58,18.00
2020,09,16,09,59,18.00
2020,09,16,10,00,18.00
2020,09,16,10,01,18.10
2020,09,16,10,02,18.10
2020,09,16,10,03,18.10
2020,09,16,10,04,18.20
2020,09,16,10,05,18.20
2020,09,16,10,06,18.20
2020,09,16,10,07,18.20
2020,09,16,10,08,18.20
2020,09,16,10,09,18.20
2020,09,16,10,10,18.20
2020,09,16,10,11,18.20
2020,09,16,10,12,18.20
2020,09,16,10,13,18.20
2020,09,16,10,14,18.20
2020,09,16,10,15,18.20
2020,09,16,10,16,18.20
2020,09,16,10,17,18.20
2020,09,16,10,18,18.30
2020,09,16,10,19,18.30
2020,09,16,10,20,18.20
2020,09,16,10,21,18.20
2020,09,16,10,22,18.20
2020,09,16,10,23,18.20
2020,09,16,10,24,18.20
2020,09,16,10,25,18.20
2020,09,16,10,26,18.20
2020,09,16,10,27,18.20
2020,09,16,10,28,18.30
2020,09,16,10,29,18.30
2020,09,16,10,30,18.30
2020,09,16,10,31,18.30
2020,09,16,10,32,18.30
2020,09,16,10,33,18.30
2020,09,16,10,34,18.30
2020,09,16,10,35,18.30
2020,09,16,10,36,18.30
2020,09,16,10,37,18.40
2020,09,16,10,38,18.40
2020,09,16,10,39,18.40
2020,09,16,10,40,18.40
2020,09,16,10,41,18.50
2020,09,16,10,42,18.50
2020,09,16,10,43,18.60
2020,09,16,10,44,18.60
2020,09,16,10,45,18.60
2020,09,16,10,46,18.70
2020,09,16,10,47,18.70
2020,09,16,10,48,18.70
2020,09,16,10,49,18.70
2020,09,16,10,50,18.70
2020,09,16,10,51,18.80
2020,09,16,10,52,18.80
2020,09,16,10,53,18.80
2020,09,16,10,54,18.90
2020,09,16,10,55,18.90
2020,09,16,10,56,19.00
2020,09,16,10,57,19.00
2020,09,16,10,58,19.10
2020,09,16,10,59,19.00
2020,09,16,11,00,19.00
2020,09,16,11,01,19.10
2020,09,16,11,02,19.10
2020,09,16,11,03,19.10
2020,09,16,11,04,19.20
2020,09,16,11,05,19.20
2020,09,16,11,06,19.20
2020,09,16,11,07,19.20
2020,09,16,11,08,19.30
2020,09,16,11,09,19.30
2020,09,16,11,10,19.30
2020,09,16,11,11,19.30
2020,09,16,11,12,19.30
2020,09,16,11,13,19.40
2020,09,16,11,14,19.40
2020,09,16,11,15,19.50
2020,09,16,11,16,19.60
2020,09,16,11,17,19.60
2020,09,16,11,18,19.70
2020,09,16,11,19,19.70
2020,09,16,11,20,19.80
2020,09,16,11,21,19.80
2020,09,16,11,22,20.00
2020,09,16,11,23,19.90
2020,09,16,11,24,19.90
2020,09,16,11,25,19.90
2020,09,16,11,26,19.90
2020,09,16,11,27,19.90
2020,09,16,11,28,19.90
2020,09,16,11,29,20.00
2020,09,16,11,30,19.90
2020,09,16,11,31,19.90
2020,09,16,11,32,20.00
2020,09,16,11,33,20.00
2020,09,16,11,34,20.00
2020,09,16,11,35,20.00
2020,09,16,11,36,20.10
2020,09,16,11,37,20.10
2020,09,16,11,38,20.10
2020,09,16,11,39,20.10
2020,09,16,11,40,20.20
2020,09,16,11,41,20.20
2020,09,16,11,42,20.20
2020,09,16,11,43,20.20
2020,09,16,11,44,20.20
2020,09,16,11,45,20.30
2020,09,16,11,46,20.30
2020,09,16,11,47,20.20
2020,09,16,11,48,20.30
2020,09,16,11,49,20.30
2020,09,16,11,50,20.30
2020,09,16,11,51,20.40
2020,09,16,11,52,20.50
2020,09,16,11,53,20.40
2020,09,16,11,54,20.40
2020,09,16,11,55,20.40
2020,09,16,11,56,20.30
2020,09,16,11,57,20.40
2020,09,16,11,58,20.40
2020,09,16,11,59,20.40
2020,09,16,12,00,20.50
2020,09,16,12,01,20.50
2020,09,16,12,02,20.60
2020,09,16,12,03,20.60
2020,09,16,12,04,20.70
2020,09,16,12,05,20.80
2020,09,16,12,06,20.80
2020,09,16,12,07,20.90
2020,09,16,12,08,20.80
2020,09,16,12,09,20.90
2020,09,16,12,10,20.90
2020,09,16,12,11,21.00
2020,09,16,12,12,21.00
2020,09,16,12,13,21.00
2020,09,16,12,14,20.90
2020,09,16,12,15,20.90
2020,09,16,12,16,20.90
2020,09,16,12,17,21.00
2020,09,16,12,18,21.00
2020,09,16,12,19,21.00
2020,09,16,12,20,21.00
2020,09,16,12,21,21.00
2020,09,16,12,22,21.00
2020,09,16,12,23,21.00
2020,09,16,12,24,20.90
2020,09,16,12,25,21.00
2020,09,16,12,26,21.10
2020,09,16,12,27,21.10
2020,09,16,12,28,21.10
2020,09,16,12,29,21.20
2020,09,16,12,30,21.20
2020,09,16,12,31,21.20
2020,09,16,12,32,21.20
2020,09,16,12,33,21.10
2020,09,16,12,34,21.10
2020,09,16,12,35,21.10
2020,09,16,12,36,21.20
2020,09,16,12,37,21.20
2020,09,16,12,38,21.20
2020,09,16,12,39,21.20
2020,09,16,12,40,21.30
2020,09,16,12,41,21.20
2020,09,16,12,42,21.30
2020,09,16,12,43,21.30
2020,09,16,12,44,21.40
2020,09,16,12,45,21.40
2020,09,16,12,46,21.40
2020,09,16,12,47,21.50
2020,09,16,12,48,21.60
2020,09,16,12,49,21.60
2020,09,16,12,50,21.60
2020,09,16,12,51,21.60
2020,09,16,12,52,21.60
2020,09,16,12,53,21.60
2020,09,16,12,54,21.60
2020,09,16,12,55,21.60
2020,09,16,12,56,21.60
2020,09,16,12,57,21.60
2020,09,16,12,58,21.60
2020,09,16,12,59,21.70
2020,09,16,13,00,21.70
2020,09,16,13,01,21.70
2020,09,16,13,02,21.70
2020,09,16,13,03,21.70
2020,09,16,13,04,21.70
2020,09,16,13,05,21.70
2020,09,16,13,06,21.70
2020,09,16,13,07,21.70
2020,09,16,13,08,21.70
2020,09,16,13,09,21.70
2020,09,16,13,10,21.70
2020,09,16,13,11,21.70
2020,09,16,13,12,21.70
2020,09,16,13,13,21.70
2020,09,16,13,14,21.60
2020,09,16,13,15,21.60
2020,09,16,13,16,21.60
2020,09,16,13,17,21.60
2020,09,16,13,18,21.50
2020,09,16,13,19,21.60
2020,09,16,13,20,21.50
2020,09,16,13,21,21.50
2020,09,16,13,22,21.40
2020,09,16,13,23,21.40
2020,09,16,13,24,21.40
2020,09,16,13,25,21.40
2020,09,16,13,26,21.30
2020,09,16,13,27,21.30
2020,09,16,13,28,21.30
2020,09,16,13,29,21.30
2020,09,16,13,30,21.30
2020,09,16,13,31,21.30
2020,09,16,13,32,21.30
2020,09,16,13,33,21.30
2020,09,16,13,34,21.30
2020,09,16,13,35,21.30
2020,09,16,13,36,21.30
2020,09,16,13,37,21.30
2020,09,16,13,38,21.30
2020,09,16,13,39,21.30
2020,09,16,13,40,21.30
2020,09,16,13,41,21.40
2020,09,16,13,42,21.40
2020,09,16,13,43,21.40
2020,09,16,13,44,21.40
2020,09,16,13,45,21.40
2020,09,16,13,46,21.40
2020,09,16,13,47,21.40
2020,09,16,13,48,21.40
2020,09,16,13,49,21.40
2020,09,16,13,50,21.40
2020,09,16,13,51,21.40
2020,09,16,13,52,21.30
2020,09,16,13,53,21.30
2020,09,16,13,54,21.30
2020,09,16,13,55,21.30
2020,09,16,13,56,21.40
2020,09,16,13,57,21.30
2020,09,16,13,58,21.30
2020,09,16,13,59,21.30
2020,09,16,14,00,21.30
2020,09,16,14,01,21.30
2020,09,16,14,02,21.30
2020,09,16,14,03,21.40
2020,09,16,14,04,21.40
2020,09,16,14,05,21.40
2020,09,16,14,06,21.40
2020,09,16,14,07,21.40
2020,09,16,14,08,21.40
2020,09,16,14,09,21.40
2020,09,16,14,10,21.40
2020,09,16,14,11,21.40
2020,09,16,14,12,21.50
2020,09,16,14,13,21.50
2020,09,16,14,14,21.50
2020,09,16,14,15,21.50
2020,09,16,14,16,21.50
2020,09,16,14,17,21.50
2020,09,16,14,18,21.40
2020,09,16,14,19,21.50
2020,09,16,14,20,21.50
2020,09,16,14,21,21.50
2020,09,16,14,22,21.50
2020,09,16,14,23,21.60
2020,09,16,14,24,21.60
2020,09,16,14,25,21.60
2020,09,16,14,26,21.60
2020,09,16,14,27,21.60
2020,09,16,14,28,21.60
2020,09,16,14,29,21.70
2020,09,16,14,30,21.70
2020,09,16,14,31,21.70
2020,09,16,14,32,21.70
2020,09,16,14,33,21.70
2020,09,16,14,34,21.70
2020,09,16,14,35,21.80
2020,09,16,14,36,21.80
2020,09,16,14,37,21.80
2020,09,16,14,38,21.80
2020,09,16,14,39,21.70
2020,09,16,14,40,21.70
2020,09,16,14,41,21.70
2020,09,16,14,42,21.70
2020,09,16,14,43,21.70
2020,09,16,14,44,21.80
2020,09,16,14,45,21.80
2020,09,16,14,46,21.80
2020,09,16,14,47,21.80
2020,09,16,14,48,21.80
2020,09,16,14,49,21.90
2020,09,16,14,50,21.90
2020,09,16,14,51,21.90
2020,09,16,14,52,21.90
2020,09,16,14,53,21.90
2020,09,16,14,54,21.90
2020,09,16,14,55,21.90
2020,09,16,14,56,22.00
2020,09,16,14,57,22.00
2020,09,16,14,58,21.90
2020,09,16,14,59,22.00
2020,09,16,15,00,22.00
2020,09,16,15,01,21.90
2020,09,16,15,02,21.90
2020,09,16,15,03,21.80
2020,09,16,15,04,21.80
2020,09,16,15,05,21.80
2020,09,16,15,06,21.80
2020,09,16,15,07,21.80
2020,09,16,15,08,21.80
2020,09,16,15,09,21.80
2020,09,16,15,10,21.70
2020,09,16,15,11,21.80
2020,09,16,15,12,21.80
2020,09,16,15,13,21.80
2020,09,16,15,14,21.80
2020,09,16,15,15,21.70
2020,09,16,15,16,21.70
2020,09,16,15,17,21.70
2020,09,16,15,18,21.70
2020,09,16,15,19,21.70
2020,09,16,15,20,21.70
2020,09,16,15,21,21.70
2020,09,16,15,22,21.70
2020,09,16,15,23,21.70
2020,09,16,15,24,21.70
2020,09,16,15,25,21.70
2020,09,16,15,26,21.70
2020,09,16,15,27,21.70
2020,09,16,15,28,21.70
2020,09,16,15,29,21.70
2020,09,16,15,30,21.70
2020,09,16,15,31,21.70
2020,09,16,15,32,21.60
2020,09,16,15,33,21.60
2020,09,16,15,34,21.60
2020,09,16,15,35,21.60
2020,09,16,15,36,21.60
2020,09,16,15,37,21.60
2020,09,16,15,38,21.60
2020,09,16,15,39,21.60
2020,09,16,15,40,21.60
2020,09,16,15,41,21.60
2020,09,16,15,42,21.60
2020,09,16,15,43,21.60
2020,09,16,15,44,21.60
2020,09,16,15,45,21.70
2020,09,16,15,46,21.70
2020,09,16,15,47,21.80
2020,09,16,15,48,21.80
2020,09,16,15,49,21.90
2020,09,16,15,50,21.90
2020,09,16,15,51,21.90
2020,09,16,15,52,21.90
2020,09,16,15,53,21.90
2020,09,16,15,54,22.00
2020,09,16,15,55,22.00
2020,09,16,15,56,21.90
2020,09,16,15,57,21.90
2020,09,16,15,58,21.90
2020,09,16,15,59,21.90
2020,09,16,16,00,21.90
2020,09,16,16,01,21.90
2020,09,16,16,02,21.90
2020,09,16,16,03,21.90
2020,09,16,16,04,21.80
2020,09,16,16,05,21.90
2020,09,16,16,06,21.90
2020,09,16,16,07,21.90
2020,09,16,16,08,21.80
2020,09,16,16,09,21.80
2020,09,16,16,10,21.80
2020,09,16,16,11,21.80
2020,09,16,16,12,21.70
2020,09,16,16,13,21.70
2020,09,16,16,14,21.60
2020,09,16,16,15,21.60
2020,09,16,16,16,21.50
2020,09,16,16,17,21.40
2020,09,16,16,18,21.40
2020,09,16,16,19,21.30
2020,09,16,16,20,21.30
2020,09,16,16,21,21.20
2020,09,16,16,22,21.20
2020,09,16,16,23,21.20
2020,09,16,16,24,21.10
2020,09,16,16,25,21.00
2020,09,16,16,26,21.00
2020,09,16,16,27,20.90
2020,09,16,16,28,20.90
2020,09,16,16,29,20.80
2020,09,16,16,30,20.80
2020,09,16,16,31,20.70
2020,09,16,16,32,20.70
2020,09,16,16,33,20.70
2020,09,16,16,34,20.60
2020,09,16,16,35,20.60
2020,09,16,16,36,20.60
2020,09,16,16,37,20.60
2020,09,16,16,38,20.50
2020,09,16,16,39,20.50
2020,09,16,16,40,20.50
2020,09,16,16,41,20.50
2020,09,16,16,42,20.50
2020,09,16,16,43,20.50
2020,09,16,16,44,20.40
2020,09,16,16,45,20.40
2020,09,16,16,46,20.40
2020,09,16,16,47,20.40
2020,09,16,16,48,20.40
2020,09,16,16,49,20.30
2020,09,16,16,50,20.30
2020,09,16,16,51,20.30
2020,09,16,16,52,20.30
2020,09,16,16,53,20.30
2020,09,16,16,54,20.30
2020,09,16,16,55,20.30
2020,09,16,16,56,20.30
2020,09,16,16,57,20.30
2020,09,16,16,58,20.30
2020,09,16,16,59,20.30
2020,09,16,17,00,20.30
2020,09,16,17,01,20.30
2020,09,16,17,02,20.40
2020,09,16,17,03,20.40
2020,09,16,17,04,20.40
2020,09,16,17,05,20.40
2020,09,16,17,06,20.40
2020,09,16,17,07,20.40
2020,09,16,17,08,20.30
2020,09,16,17,09,20.30
2020,09,16,17,10,20.30
2020,09,16,17,11,20.30
2020,09,16,17,12,20.30
2020,09,16,17,13,20.30
2020,09,16,17,14,20.30
2020,09,16,17,15,20.30
2020,09,16,17,16,20.30
2020,09,16,17,17,20.30
2020,09,16,17,18,20.30
2020,09,16,17,19,20.20